STARLINK-3162, 49411

Orbit data source: Space-Track

STARLINK-3162, 49411 is a payload satellite owned by SpaceX/Seattle (US) in LEO that was launched on Sat, 13 Nov 2021 UTC via an FALCON 9 launch vehicle from the Air Force Eastern Test Range (AFETR). Payload-class satellites include a variety of spacecraft equipped with specific instruments for various scientific and technological missions. These include communications satellites like Starlink; space stations such as the ISS; scientific satellites like the Hubble; Earth observation satellites from companies like Planet Labs, Umbra, and HawkEye 360; GPS; miniature CubeSats for education and research; and military/defense satellites.

Loading next visibility...
Identifier
49411, 2021-104D
Orbit
LEO
Country
Flag of USUS
Related business
Manufacturer
SpaceX/Seattle
Mission
Operational Commercial Communications
Bus & Motor
STARLINK, Unknown motor
Mass
290 kg wet, ~270 kg dry
Launch date (UTC)
2021-11-13 (5 years ago)
Launch vehicle
FALCON 9
Launch site
Air Force Eastern Test Range (AFETR)
Object type
Payload
Rocket body
Debris
Shape & HBR
Box + 1 Pan, 10.1 m
Radar Cross Section
13.562 m², Large (>1 m²)

Expand to show TLE details & history
Last TLE update: 1 week ago

TLE from 1 week ago
0 STARLINK-3162
1 49411U 21104D   26154.69245756  .00000467  00000-0  47454-4 0  9994
2 49411  53.1810 193.0147 0001087 103.5201 256.5912 15.08837632251755
Epoch: 2026-06-03T16:37Z
TLE epoch observation values (Epoch: 2026-06-03T16:37:08.333Z)
Latitude
Longitude
51.58256°
Altitude
540.819 km
Speed
7.593 km/s
True Right ascension
12h 52m 03s
True Declination
0° 00' 00"
Sunlit
Object was in full shadow at epoch
Visualization orbit readout
Latitude
Unknown
Longitude
Unknown
Altitude
Unknown
Speed
Unknown
Apparent Right ascension
Unknown
Apparent Declination
Unknown
Sunlit
N/A
Visualization observer readout
Local Sidereal Time
14:54:22
Azimuth
Unknown
Elevation
Unknown
Doppler factor
Unknown
Orbital elements
Apogee altitude
540.753 km
Perigee altitude
539.249 km
Semi-major axis
6,918.138 km
Eccentricity
0.00011
Inclination
53.181°
RAAN
193.0147°
Arg. of periapsis
103.5201°
True anomaly
256.57908°
Mean anomaly
256.5912°
Eccentric anomaly
256.58514°
Mean motion
3.77189 °/min
Orbital period
95.44 mins
BSTAR
0.000047454
Loading maneuver chart data...
Computing Atmospheric mass density...
Loading historical data...
Loading historical data...
Loading historical data...
Loading historical data...
Loading historical data...
Loading historical data...
Loading historical data...

Documentation

Showing up to 5 results
|